Location: Sternwarte_Laufen
(47.9344°N, 12.9346°E)
Time: 15:49:46
(UTC+02:00)

ISS - Pass Details

Date: 09 May 2026
Orbit: 414 x 424 km, 51.6° (Epoch: 21 May)

Event Time Altitude Azimuth Distance (km) Brightness Sun altitude
Exits shadow 04:57:08 - 270° (W) 1,928 -0.9 -6.7°
Reaches altitude 10° 04:59:10 10° 244° (WSW) 1,496 -1.6 -6.4°
Maximum altitude 05:00:08 11° 227° (SW) 1,438 -1.7 -6.3°
Drops below altitude 10° 05:01:06 10° 210° (SSW) 1,495 -1.5 -6.2°
Sets 05:04:32 0° 172° (S) 2,356 -0.2 -5.7°
